Regional Weather Roundup
Issued by NWS State College, PA

Home | Current Version | Previous Version | Text Only | Print | Product List | Glossary Off
Versions: 1 2 3 4 5 6 7 8 9 10 11 12 13 14 15 16 17 18 19 20 21 22 23 24 25 26 27 28 29 30 31 32 33 34 35 36 37 38 39 40 41 42 43 44 45 46 47 48 49 50

000
ASUS41 KCTP 220203
RWRCTP

REGIONAL WEATHER ROUNDUP
NATIONAL WEATHER SERVICE STATE COLLEGE PA
1000 PM EDT TUE OCT 21 2014

Note: "fair" indicates few or no clouds below 12,000 feet with no
significant weather and/or obstructions to visibility.

* = STATION THAT DOES NOT REPORT PRECIPITATION /E.G. RAIN...SNOW...ETC/
    THUNDER OR FOG.

PAZ002>004-007>009-013>016-020>023-029>032-220300-
WESTERN PENNSYLVANIA

CITY           SKY/WX    TMP DP  RH WIND       PRES   REMARKS
ERIE           CLOUDY    49  44  83 NE17G24   30.07R
MEADVILLE      CLOUDY    47  44  90 N9        30.03R
FRANKLIN*      CLOUDY    46  43  87 N3        30.02R
NEW CASTLE       N/A     47  47 100 N8        30.04R
BEAVER COUNTY  NOT AVBL
BUTLER*        CLOUDY    46  43  87 CALM      30.03R
PITTSBURGH INT CLOUDY    48  45  89 NW9       30.01R
PITTSBURGH     CLOUDY    48  42  80 NW9       30.00R
INDIANA*       CLOUDY    48  46  93 NW5       30.03R FOG
LATROBE        NOT AVBL
WASHINGTON CO* CLOUDY    46  43  87 NW6       30.04R
$$

PAZ004>006-010>012-017>019-024>028-033>037-041-042-045-046-049>053-220300-
CENTRAL PENNSYLVANIA

CITY           SKY/WX    TMP DP  RH WIND       PRES   REMARKS
BRADFORD       CLOUDY    47  44  90 N5        29.99R
DUBOIS         LGT RAIN  47  46  97 N7        29.97R FOG
CLEARFIELD     CLOUDY    49  47  93 N5        29.97R
JOHNSTOWN      CLOUDY    45  43  93 NW10      29.96R
ALTOONA        CLOUDY    50  46  86 CALM      29.96R
STATE COLLEGE  CLOUDY    50  47  90 CALM      29.95R
WILLIAMSPORT   CLOUDY    49  47  93 CALM      29.93R
SELINSGROVE    CLOUDY    51  47  86 CALM      29.93R
FT INDIANTOWN  CLOUDY    56  52  85 VRB3      29.91R
CAPITAL CITY   CLOUDY    54  48  80 W5        29.92R
HARRISBURG     CLOUDY    54  48  80 NW10      29.91R
YORK           LGT RAIN  52  50  93 W3        29.91R
$$

PAZ038>040-043-044-047-048-054-055-060>062-067>071-220300-
EASTERN PENNSYLVANIA

CITY           SKY/WX    TMP DP  RH WIND       PRES   REMARKS
SCRANTON       MOCLDY    52  49  89 E5        29.92S
MOUNT POCONO   CLOUDY    50  47  89 NE7       29.92R
ALLENTOWN      CLOUDY    55  49  80 E5        29.91R
QUAKERTOWN*    PTCLDY    52  50  93 CALM      29.92R
READING        CLOUDY    56  48  74 NE3       29.90R
LANCASTER      CLOUDY    55  49  80 W7        29.90R
COATESVILLE    MOCLDY    55  48  76 N6        29.90R
POTTSTOWN      CLOUDY    57  49  74 NE5       29.91R
BLUE BELL      PTCLDY    59  52  77 NE5       29.88R
DOYLESTOWN     MOCLDY    55  51  86 CALM      29.90R
WILLOW GROVE   NOT AVBL
NORTH PHILA    CLOUDY    60  52  74 NE9       29.90R
PHILADELPHIA   CLOUDY    62  50  64 NE8       29.88R
$$



USA.gov is the U.S. government's official web portal to all federal, state and local government web resources and services.